Stations météo

réclame
Mon MeteoGroup
Wattisham, Grande-Bretagne (3590): Température de l'air & dewpoint: 12.07.2019 14:00:00 - 18.07.2019 14:00:00 (BST)Wattisham, Grande-Bretagne (3590): Température de l'air -20cm & Température de l'air -100cm: 12.07.2019 14:00:00 - 18.07.2019 14:00:00 (BST)Wattisham, Grande-Bretagne (3590): Vitesse du vent: 12.07.2019 14:00:00 - 18.07.2019 14:00:00 (BST)Wattisham, Grande-Bretagne (3590): Direction du vent: 12.07.2019 14:00:00 - 18.07.2019 14:00:00 (BST)Wattisham, Grande-Bretagne (3590): reduced air pressure: 12.07.2019 14:00:00 - 18.07.2019 14:00:00 (BST)Wattisham, Grande-Bretagne (3590): visibility: 12.07.2019 14:00:00 - 18.07.2019 14:00:00 (BST)Wattisham, Grande-Bretagne (3590): Ensoleillement: 12.07.2019 14:00:00 - 18.07.2019 14:00:00 (BST)Wattisham, Grande-Bretagne (3590): Quantités de précipitations: 12.07.2019 14:00:00 - 18.07.2019 14:00:00 (BST)
Date & Time tt [°C] td [°C] tt -20cm [°C] tt -100cm [°C] ff [km/h] ff [knt] dd ppp [hPa] vv [km] sd [min] rr [mm]
18.07.2019 14:00:00 18,1 14,7 - - 22 12 WNW 1009,0 10 0 0,0
18.07.2019 13:00:00 19,7 16,5 - - 11 6 WSW 1008,5 10 6 0,0
18.07.2019 12:00:00 17,3 16,0 - - 11 6 WSW 1009,1 10 0 0,0
18.07.2019 11:00:00 17,3 16,9 - - 16 9 SW 1009,0 10 0 0,2
18.07.2019 10:00:00 16,2 15,7 18,0 16,0 13 7 SW 1009,0 3,5 0 0,8
18.07.2019 09:00:00 17,1 14,8 - - 16 9 SW 1009,0 10 0 0,0
18.07.2019 08:00:00 17,0 14,5 - - 15 8 SW 1009,0 10 6 0,0
18.07.2019 07:00:00 15,6 14,0 - - 11 6 SSW 1009,1 16 6 0,0
18.07.2019 06:00:00 14,7 13,1 - - 8 4 SSW 1009,2 16 0 0,0
18.07.2019 05:00:00 14,1 12,9 - - 9 5 SW 1009,7 10 0 0,0
18.07.2019 04:00:00 14,9 13,5 - - 8 4 SW 1009,6 20 0 0,2
18.07.2019 03:00:00 14,4 12,4 - - 9 5 WSW 1010,1 26 0 0,0
18.07.2019 02:00:00 15,9 13,4 - - 11 6 WSW 1010,4 30 0 0,0
18.07.2019 01:00:00 16,6 13,6 - - 9 5 WSW 1010,9 10 - 0,0
18.07.2019 00:00:00 17,1 13,8 - - 11 6 SW 1011,0 10 0 0,0
17.07.2019 23:00:00 17,6 13,0 - - 13 7 SSW 1011,0 10 0 0,2
17.07.2019 22:00:00 18,4 12,7 - - 13 7 S 1011,1 10 0 0,0
17.07.2019 21:00:00 19,6 12,2 - - 13 7 S 1011,1 10 0 0,0
17.07.2019 20:00:00 21,1 11,9 - - 11 6 S 1011,2 10 0 0,0
17.07.2019 19:00:00 21,9 11,5 - - 16 9 S 1011,6 10 0 0,0
17.07.2019 18:00:00 22,5 11,8 - - 16 9 S 1011,7 10 0 0,0
17.07.2019 17:00:00 22,6 11,9 - - 18 10 S 1012,2 10 0 0,0
17.07.2019 16:00:00 22,8 11,8 - - 16 9 S 1012,6 10 0 0,0
17.07.2019 15:00:00 23,5 10,7 - - 18 10 S 1013,0 10 24 0,0
17.07.2019 14:00:00 24,8 10,3 - - 16 9 S 1013,2 10 60 0,0
17.07.2019 13:00:00 24,8 11,3 - - 11 6 S 1013,6 10 54 0,0
17.07.2019 12:00:00 24,0 10,9 - - 16 9 S 1014,1 30 60 0,0
17.07.2019 11:00:00 23,5 11,0 - - 18 10 SW 1014,5 10 54 0,0
17.07.2019 10:00:00 21,8 12,1 17,9 16,0 13 7 SW 1014,8 10 48 0,0
17.07.2019 09:00:00 21,0 13,3 - - 16 9 WSW 1015,1 10 48 0,0
17.07.2019 08:00:00 18,8 15,0 - - 11 6 WSW 1014,9 10 54 0,0
17.07.2019 07:00:00 15,4 13,2 - - 11 6 WSW 1015,2 10 6 0,0
17.07.2019 06:00:00 14,3 12,8 - - 15 8 WSW 1015,5 11 0 0,0
17.07.2019 05:00:00 13,6 12,0 - - 13 7 SW 1015,7 11 0 0,0
17.07.2019 04:00:00 15,3 12,9 - - 15 8 SSW 1015,8 17 0 0,0
17.07.2019 03:00:00 15,8 13,2 - - 15 8 SSW 1016,3 16 0 0,0
17.07.2019 02:00:00 16,2 13,7 - - 13 7 S 1016,8 10 0 0,0
17.07.2019 01:00:00 16,4 14,0 - - 15 8 S 1017,2 20 - 0,0
17.07.2019 00:00:00 16,1 13,7 - - 15 8 SSE 1017,3 10 0 0,0
16.07.2019 23:00:00 16,8 13,0 - - 13 7 SE 1017,4 10 0 0,0
16.07.2019 22:00:00 17,4 12,6 - - 13 7 SE 1017,5 10 0 0,0
16.07.2019 21:00:00 18,5 12,4 - - 13 7 SSE 1017,1 10 0 0,0
16.07.2019 20:00:00 19,6 12,7 - - 16 9 SE 1017,2 10 24 0,0
16.07.2019 19:00:00 21,3 13,2 - - 21 11 SE 1017,1 10 30 0,0
16.07.2019 18:00:00 22,5 13,0 - - 21 11 SE 1016,9 10 12 0,0
16.07.2019 17:00:00 24,0 11,7 - - 13 7 ESE 1016,9 10 36 0,0
16.07.2019 16:00:00 25,4 11,5 - - 5 3 NW 1017,2 10 48 0,0
16.07.2019 15:00:00 23,8 12,1 - - 5 3 N 1017,8 10 36 0,0
16.07.2019 14:00:00 24,0 11,2 - - 9 5 N 1018,0 40 48 0,0
16.07.2019 13:00:00 23,4 11,9 - - 9 5 NNW 1018,4 10 42 0,0
16.07.2019 12:00:00 22,0 12,1 - - 13 7 NW 1018,8 10 42 0,0
16.07.2019 11:00:00 21,1 12,0 - - 13 7 NNW 1019,0 40 60 0,0
16.07.2019 10:00:00 19,8 12,0 17,5 16,0 8 4 WNW 1019,5 10 42 0,0
16.07.2019 09:00:00 19,0 12,5 - - 13 7 WNW 1019,9 10 60 0,0
16.07.2019 08:00:00 14,8 13,1 - - 9 5 W 1020,1 10 54 0,0
16.07.2019 07:00:00 11,5 11,4 - - 9 5 WSW 1020,0 15 48 0,0
16.07.2019 06:00:00 9,4 9,2 - - 9 5 WSW 1020,0 6 0 0,0
16.07.2019 05:00:00 8,9 8,7 - - 9 5 WSW 1020,1 5 0 0,0
16.07.2019 04:00:00 9,3 9,1 - - 9 5 WSW 1020,2 3,1 0 0,0
16.07.2019 03:00:00 9,7 9,4 - - 8 4 WSW 1020,7 4,3 0 0,0
16.07.2019 02:00:00 10,1 9,7 - - 8 4 WSW 1021,1 9 0 0,0
16.07.2019 01:00:00 10,7 9,9 - - 8 4 SW 1021,3 10 - 0,0
16.07.2019 00:00:00 11,6 10,2 - - 8 4 SSW 1021,4 10 0 0,0
15.07.2019 23:00:00 13,1 11,3 - - 8 4 S 1021,6 10 0 0,0
15.07.2019 22:00:00 13,2 10,7 - - 11 6 SSE 1021,5 10 0 0,0
15.07.2019 21:00:00 15,6 9,8 - - 4 2 S 1021,4 10 42 0,0
15.07.2019 20:00:00 18,2 10,1 - - 2 1 N 1021,3 50 42 0,0
15.07.2019 19:00:00 17,2 10,4 - - 5 3 N 1021,5 10 0 0,0
15.07.2019 18:00:00 17,3 10,3 - - 9 5 NNE 1021,7 50 0 0,0
15.07.2019 17:00:00 17,2 10,7 - - 5 3 NNE 1022,1 10 0 0,0
15.07.2019 16:00:00 17,2 10,9 - - 11 6 NNE 1022,6 10 0 0,0
15.07.2019 15:00:00 16,8 10,3 - - 11 6 N 1022,5 10 0 0,0
15.07.2019 14:00:00 16,5 10,1 - - 11 6 NNE 1022,7 50 0 0,0
15.07.2019 13:00:00 16,2 11,1 - - 11 6 N 1022,8 10 0 0,0
15.07.2019 12:00:00 15,6 10,3 - - 11 6 N 1022,9 10 0 0,0
15.07.2019 11:00:00 15,4 10,4 - - 13 7 N 1023,0 10 0 0,0
15.07.2019 10:00:00 15,0 10,0 18,0 16,0 13 7 N 1023,2 10 0 0,0
15.07.2019 09:00:00 14,2 10,6 - - 13 7 N 1023,0 10 0 0,0
15.07.2019 08:00:00 13,2 10,8 - - 13 7 N 1022,9 10 0 0,0
15.07.2019 07:00:00 12,3 11,0 - - 15 8 NNE 1022,8 10 0 0,0
15.07.2019 06:00:00 12,5 10,3 - - 11 6 NNW 1022,7 50 0 0,0
15.07.2019 05:00:00 12,4 10,3 - - 9 5 NNW 1023,0 50 0 0,0
15.07.2019 04:00:00 12,3 10,1 - - 8 4 N 1022,7 50 0 0,0
15.07.2019 03:00:00 12,5 9,9 - - 8 4 N 1023,0 40 0 0,0
15.07.2019 02:00:00 12,6 9,8 - - 9 5 NNE 1023,2 45 0 0,0
15.07.2019 01:00:00 12,8 10,0 - - 13 7 NNE 1023,5 50 - 0,0
15.07.2019 00:00:00 13,0 10,3 - - 16 9 N 1023,7 35 0 0,0
14.07.2019 23:00:00 13,6 10,5 - - 15 8 N 1023,7 40 0 0,0
14.07.2019 22:00:00 13,8 9,7 - - 15 8 NNE 1023,5 10 0 0,0
14.07.2019 21:00:00 14,6 9,7 - - 18 10 N 1023,3 45 0 0,0
14.07.2019 20:00:00 15,2 9,3 - - 18 10 N 1023,4 50 24 0,0
14.07.2019 19:00:00 16,7 10,4 - - 24 13 NNE 1023,3 10 48 0,0
14.07.2019 18:00:00 17,9 10,1 - - 24 13 NNE 1023,2 10 30 0,0
14.07.2019 17:00:00 18,6 11,2 - - 24 13 N 1023,0 10 24 0,0
14.07.2019 16:00:00 18,9 10,8 - - 21 11 N 1023,0 5 30 0,0
14.07.2019 15:00:00 17,2 11,7 - - 21 11 N 1023,4 4,5 0 0,0
14.07.2019 14:00:00 18,5 11,3 - - 18 10 NNE 1023,3 2,7 0 0,0
14.07.2019 13:00:00 18,5 10,5 - - 18 10 N 1023,3 13 6 0,0
14.07.2019 12:00:00 18,0 10,7 - - 15 8 NNE 1023,2 10 0 0,0
14.07.2019 11:00:00 17,1 10,7 - - 16 9 N 1023,3 50 18 0,0
14.07.2019 10:00:00 16,5 11,6 18,2 16,0 18 10 N 1023,5 30 18 0,0
14.07.2019 09:00:00 17,1 13,2 - - 16 9 N 1023,3 10 48 0,0
14.07.2019 08:00:00 14,9 12,7 - - 16 9 NNE 1023,1 22 12 0,0
14.07.2019 07:00:00 13,3 12,6 - - 11 6 N 1023,1 13 0 0,0
14.07.2019 06:00:00 12,5 11,9 - - 8 4 N 1023,0 8 0 0,0
14.07.2019 05:00:00 12,4 11,4 - - 8 4 NNW 1023,0 14 0 0,0
14.07.2019 04:00:00 12,7 11,0 - - 2 1 NW 1023,0 15 0 0,0
14.07.2019 03:00:00 13,0 10,9 - - 5 3 ENE 1023,2 26 0 0,0
14.07.2019 02:00:00 12,8 10,9 - - 9 5 NE 1023,4 27 0 0,0
14.07.2019 01:00:00 13,0 10,9 - - 15 8 NE 1023,2 10 - 0,0
14.07.2019 00:00:00 14,2 11,7 - - 15 8 NE 1023,0 26 0 0,0
13.07.2019 23:00:00 15,0 12,2 - - 9 5 NE 1023,0 10 0 0,0
13.07.2019 22:00:00 15,1 11,6 - - 11 6 NE 1023,0 40 0 0,0
13.07.2019 21:00:00 16,7 12,6 - - 11 6 NNE 1022,5 50 0 0,0
13.07.2019 20:00:00 17,9 12,2 - - 8 4 NE 1022,2 50 18 0,0
13.07.2019 19:00:00 18,7 12,2 - - 13 7 N 1022,0 40 18 0,0
13.07.2019 18:00:00 19,3 12,2 - - 18 10 NNE 1021,9 40 36 0,0
13.07.2019 17:00:00 20,7 12,5 - - 16 9 N 1021,7 23 24 0,0
13.07.2019 16:00:00 19,8 11,7 - - 16 9 N 1021,6 50 36 0,0
13.07.2019 15:00:00 19,6 11,3 - - 18 10 N 1021,7 10 36 0,0
13.07.2019 14:00:00 18,1 13,3 - - 15 8 N 1021,9 45 6 0,0
13.07.2019 13:00:00 17,5 15,0 - - 11 6 NNE 1022,0 30 0 0,0
13.07.2019 12:00:00 17,5 13,3 - - 13 7 NNW 1021,8 45 0 0,0
13.07.2019 11:00:00 16,5 13,8 - - 13 7 N 1021,5 28 0 0,0
13.07.2019 10:00:00 16,1 14,4 18,2 15,9 13 7 NNW 1021,2 11 0 0,0
13.07.2019 09:00:00 15,2 14,4 - - 13 7 NNW 1021,1 4,4 0 0,0
13.07.2019 08:00:00 15,1 14,0 - - 15 8 NW 1020,8 8 0 0,0
13.07.2019 07:00:00 15,2 13,9 - - 15 8 NNW 1020,1 10 0 0,0
13.07.2019 06:00:00 15,0 13,9 - - 15 8 NNW 1019,7 8 0 0,0
13.07.2019 05:00:00 15,0 14,4 - - 11 6 NNW 1019,4 9 0 0,0
13.07.2019 04:00:00 14,5 14,2 - - 5 3 N 1019,4 8 0 0,0
13.07.2019 03:00:00 14,0 13,7 - - 9 5 NNW 1019,4 9 0 0,0
13.07.2019 02:00:00 13,0 12,4 - - 8 4 NNW 1019,1 10 0 0,0
13.07.2019 01:00:00 13,3 12,1 - - 11 6 N 1019,1 10 - 0,0
13.07.2019 00:00:00 13,3 12,0 - - 8 4 NNW 1018,9 35 0 0,0
12.07.2019 23:00:00 13,4 11,6 - - 5 3 WNW 1018,3 40 0 0,0
12.07.2019 22:00:00 15,7 12,8 - - 9 5 NNW 1017,8 50 0 0,0
12.07.2019 21:00:00 16,4 13,0 - - 9 5 N 1017,1 10 0 0,0
12.07.2019 20:00:00 18,9 13,7 - - 16 9 NNE 1016,4 45 60 0,0
12.07.2019 19:00:00 21,0 13,3 - - 21 11 N 1015,3 40 54 0,0
12.07.2019 18:00:00 21,5 13,0 - - 18 10 NW 1014,7 10 18 0,0
12.07.2019 17:00:00 20,7 12,9 - - 16 9 NNW 1014,6 10 6 0,0
12.07.2019 16:00:00 20,7 11,7 - - 21 11 NW 1014,5 10 24 0,0
12.07.2019 15:00:00 21,6 12,9 - - 26 14 NW 1013,9 10 24 0,0
12.07.2019 14:00:00 20,7 12,8 - - 22 12 NW 1013,7 10 6 0,0

tt = Température de l'air
td = dewpoint
tt -20cm = Température de l'air -20cm
tt -100cm = Température de l'air -100cm
ff = Vitesse du vent
dd = Direction du vent
ppp = reduced air pressure
vv = visibility
sd = Ensoleillement
rr = Quantités de précipitations

stations d'obs. à proximité